Content
SEND FEEDBACK

Daily
Averages
Monthly
Summary
Italy

FLORENCE - AIRPORT, ITALY


Home > Europe > Italy
Elevation: 125 feet     Latitude: 43 48N     Longitude: 011 12E

WEATHER
 
SELECT A DAY
Number of Records: 242,046;   Date Range: 7/1/96 - 7/11/14
 
SHARE

PRINT THIS DATA

[ ← Previous Day ]
WEATHER ALMANAC - FEBRUARY 3, 2013
[ Next Day → ]
[ °C ]   °F
Weather ElementAverageHighLow
Temperature44.4 °F51.8 °F (1:50 pm)32 °F (11:50 pm)
Dewpoint32 °F33.8 °F (12:50 am)28.4 °F (3:20 pm)
Humidity62.7 %87 % (11:50 pm)43 % (3:20 pm)
Barometer29.76 in30.06 in (10:20 pm)29.33 in (12:50 am)
Wind Speed9.6 mph17.3 mph (6:20 am)
Wind Gust54.1 mph (12:50 am)
Weather ElementAverage
Visibility6.2 mi
Wind DirectionNE (39.8 °)

Weather ElementTotal
Precipitation---
Heating Degree Days23.1 (Base 65)
Averaged from 47 records on February 3, 2013
WEATHER CONDITIONS BREAKOUT
WIND DIRECTION BREAKOUT
WEATHER BY HOUR - FEBRUARY 3, 2013
[ °C ]   °F
Local TimeTemperatureDewpointHumidityBarometerVisibilityWind DirectionWind SpeedGust SpeedPrecipitationEventsConditions
12:50 AM42.8 °F33.8 °F70 %29.33 in6.2 miNNE (20°)15.0 mph54.1 mphPartly Cloudy
1:20 AM42.8 °F33.8 °F70 %29.36 in6.2 miNNE (20°)16.1 mph43.7 mphPartly Cloudy
1:50 AM41.0 °F33.8 °F76 %29.39 in6.2 miNNE (30°)12.7 mph34.5 mphPartly Cloudy
2:20 AM41.0 °F33.8 °F76 %29.39 in6.2 miNNE (30°)13.8 mph35.7 mphMostly Cloudy
2:50 AM42.8 °F33.8 °F70 %29.42 in6.2 miNNE (20°)15.0 mph43.7 mphMostly Cloudy
3:20 AM42.8 °F33.8 °F70 %29.42 in6.2 miNNE (30°)15.0 mph43.7 mphMostly Cloudy
3:50 AM42.8 °F33.8 °F70 %29.44 in6.2 miNNE (30°)12.7 mph36.8 mphMostly Cloudy
4:20 AM42.8 °F33.8 °F70 %29.44 in6.2 miNE (40°)13.8 mph38.0 mphMostly Cloudy
4:50 AM44.6 °F33.8 °F66 %29.44 in6.2 miNNE (20°)12.7 mph35.7 mphMostly Cloudy
5:20 AM44.6 °F33.8 °F66 %29.50 in6.2 miNNE (30°)13.8 mph34.5 mphPartly Cloudy
5:50 AM44.6 °F33.8 °F66 %29.50 in6.2 miNNE (30°)12.7 mph33.4 mphPartly Cloudy
6:20 AM44.6 °F32.0 °F61 %29.53 in6.2 miNNE (30°)17.3 mph41.4 mphPartly Cloudy
6:50 AM44.6 °F32.0 °F61 %29.56 in6.2 miNNE (30°)12.7 mph40.3 mphPartly Cloudy
7:20 AM46.4 °F32.0 °F57 %29.59 in6.2 miNE (40°)15.0 mph28.8 mphPartly Cloudy
7:50 AM44.6 °F33.8 °F66 %29.62 in6.2 miNE (40°)11.5 mph31.1 mphPartly Cloudy
8:20 AM44.6 °F33.8 °F66 %29.65 in6.2 miENE (70°)10.4 mphPartly Cloudy
8:50 AM46.4 °F33.8 °F62 %29.68 in6.2 miNE (40°)9.2 mphPartly Cloudy
9:20 AM46.4 °F32.0 °F57 %29.68 in6.2 miNE (40°)11.5 mphPartly Cloudy
9:50 AM46.4 °F32.0 °F57 %29.71 in6.2 miVariable8.1 mphPartly Cloudy
10:20 AM48.2 °F32.0 °F54 %29.74 in6.2 miVariable8.1 mphPartly Cloudy
10:50 AM48.2 °F32.0 °F54 %29.77 in6.2 miNNE (30°)13.8 mphPartly Cloudy
11:20 AM50.0 °F32.0 °F50 %29.77 in6.2 miNorth (10°)10.4 mph21.9 mphPartly Cloudy
11:50 AM48.2 °F33.8 °F58 %29.80 in6.2 miNNE (20°)13.8 mph27.6 mphPartly Cloudy
12:20 PM48.2 °F33.8 °F58 %29.83 in6.2 miNNE (20°)10.4 mph21.9 mphPartly Cloudy
12:50 PM50.0 °F32.0 °F50 %29.83 in6.2 miNNE (20°)9.2 mph20.7 mphPartly Cloudy
1:20 PM50.0 °F30.2 °F47 %29.83 in6.2 miNorth (360°)10.4 mphPartly Cloudy
1:50 PM51.8 °F30.2 °F44 %29.83 in6.2 miNE (50°)10.4 mph27.6 mphPartly Cloudy
2:20 PM51.8 °F32.0 °F47 %29.86 in6.2 miVariable6.9 mphPartly Cloudy
2:50 PM51.8 °F30.2 °F44 %29.86 in6.2 miNorth (10°)8.1 mphPartly Cloudy
3:20 PM50.0 °F28.4 °F43 %29.89 in6.2 miNNE (20°)11.5 mphPartly Cloudy
3:50 PM50.0 °F30.2 °F47 %29.89 in6.2 miNNE (20°)11.5 mphPartly Cloudy
4:20 PM50.0 °F30.2 °F47 %29.89 in6.2 miNNE (20°)10.4 mphPartly Cloudy
4:50 PM48.2 °F30.2 °F50 %29.92 in6.2 miNorth (10°)10.4 mphPartly Cloudy
5:20 PM46.4 °F30.2 °F53 %29.92 inNNE (30°)9.2 mphClear
5:50 PM46.4 °F32.0 °F57 %29.95 inNNE (30°)6.9 mphClear
6:20 PM44.6 °F32.0 °F61 %29.95 inNNE (30°)3.5 mphClear
6:50 PM41.0 °F32.0 °F70 %29.98 inNE (40°)3.5 mphClear
7:20 PM42.8 °F32.0 °F66 %30.01 inNorth (10°)4.6 mphClear
7:50 PM42.8 °F32.0 °F66 %30.01 inNNE (30°)3.5 mphClear
8:20 PM41.0 °F32.0 °F70 %30.04 inVariable1.2 mphClear
8:50 PM37.4 °F32.0 °F81 %30.04 inEast (90°)3.5 mphClear
9:20 PM39.2 °F30.2 °F70 %30.04 inEast (80°)3.5 mphClear
9:50 PM37.4 °F30.2 °F75 %30.04 inEast (80°)3.5 mphClear
10:20 PM33.8 °F28.4 °F81 %30.06 inENE (60°)4.6 mphClear
10:50 PM35.6 °F30.2 °F81 %30.06 inVariable1.2 mphClear
11:20 PM35.6 °F30.2 °F81 %30.06 inSSE (160°)3.5 mphClear
11:50 PM32.0 °F28.4 °F87 %30.06 inNE (50°)5.8 mphClear
Hourly data recorded from LIRQ, located miles away from Florence - Airport, Italy







STORIES FROM OUR PARTNERS